Flag for Honduras Weather past 2 weeks in Tegucigalpa, Honduras

Now
66 °F

Partly sunny.


Feels Like: 66 °F
Forecast: 65 / 84 °F
Wind: 7 mph from North

Location: Tegucigalpa Airport

Current Time: Apr 1, 2015 at 8:01:04 AM

Latest Report: Apr 1, 2015 at 7:00 AM


Visibility: N/A

Pressure: 30.12 "Hg

Humidity: 88%

Dew point: 63 °F

Location of TegucigalpaLocation

Historic Weather in Tegucigalpa — Graph

°F

Tegucigalpa temperature yesterday

Maximum temperature yesterday: 84 °F (at 4:00 PM)
Minimum temperature yesterday: 64 °F (at 5:00 AM)
Average temperature yesterday: 73 °F

Past Weeks' High & Low Weather Summary

 TemperatureHumidityPressure
High91 °F (Mar 26, 2:00 PM)100% (Mar 27, 5:00 AM)30.24 "Hg (Mar 27, 5:00 AM)
Low57 °F (Mar 19, 5:00 AM)27% (Mar 22, 3:00 PM)29.59 "Hg (Mar 19, 12:00 AM)
Average73 °F63%30.11 "Hg
* Reported Mar 17 7:00 AM — Apr 1 7:00 AM, Tegucigalpa, Weather by CustomWeather, © 2015

Note: Actual official high and low records may vary slightly from our data, if they occured in-between our weather recording intervals... More about our weather records

Advertising

Tegucigalpa weather history for previous 24 hours

 ConditionsComfort  
Time TempWeatherWind HumidityBarometerVisibility
7:00 AM
Wed, Apr 1
66 °FPartly sunny.7 mph88%30.12 "HgN/A
6:00 AM64 °FScattered clouds.5 mph94%30.09 "HgN/A
5:00 AM66 °FPassing clouds.7 mph88%30.09 "HgN/A
4:00 AM68 °FPassing clouds.5 mph78%30.07 "HgN/A
3:00 AM68 °FPassing clouds.6 mph83%30.09 "HgN/A
2:00 AM68 °FPassing clouds.6 mph88%30.09 "HgN/A
1:00 AM68 °FPassing clouds.9 mph88%30.09 "HgN/A
12:00 AM68 °FPassing clouds.8 mph83%30.12 "HgN/A
11:00 PM
Tue, Mar 31
70 °FPartly cloudy.12 mph78%30.12 "HgN/A
10:00 PM70 °FPassing clouds.12 mph78%30.12 "HgN/A
9:00 PM72 °FPassing clouds.10 mph73%30.12 "HgN/A
8:00 PM75 °FPassing clouds.7 mph61%30.07 "HgN/A
7:00 PM77 °FPassing clouds.3 mph57%30.04 "HgN/A
6:00 PM79 °FPassing clouds.9 mph48%30.04 "HgN/A
5:00 PM84 °FScattered clouds.9 mph40%30.01 "HgN/A
4:00 PM84 °FPassing clouds.9 mph40%30.01 "HgN/A
3:00 PM81 °FPartly sunny.9 mph45%30.04 "HgN/A
2:00 PM81 °FPartly sunny.9 mph45%30.07 "HgN/A
1:00 PM81 °FPartly sunny.14 mph48%30.09 "HgN/A
12:00 PM79 °FScattered clouds.12 mph48%30.12 "HgN/A
11:00 AM79 °FScattered clouds.12 mph51%30.15 "HgN/A
10:00 AM75 °FBroken clouds.14 mph61%30.15 "HgN/A
9:00 AM72 °FScattered clouds.7 mph69%30.15 "HgN/A
8:00 AM70 °FScattered clouds.9 mph78%30.15 "HgN/A
Weather by CustomWeather, © 2015

See weather overviewHow to use our weather pages